"datetime","# probes","# resolvers","can_ipv6","can_ipv6_prbs","can_tcp","can_tcp_prbs","can_tcp6","can_tcp6_prbs","does_ecs","does_ecs_prbs","does_flagday","does_flagday_prbs","does_rov4","does_rov4_prbs","does_rov6","does_rov6_prbs","does_qnamemin","doesnt_qnamemin","does_qnamemin_prbs","doesnt_qnamemin_prbs","does_nxdomain","doesnt_nxdomain","does_nxdomain_prbs","doesnt_nxdomain_prbs","has_ta_19036","hasnt_ta_19036","has_ta_19036_prbs","hasnt_ta_19036_prbs","has_ta_20326","hasnt_ta_20326","has_ta_20326_prbs","hasnt_ta_20326_prbs","can_rsamd5","cannot_rsamd5","broken_rsamd5","can_rsamd5_prbs","cannot_rsamd5_prbs","broken_rsamd5_prbs","can_dsa","cannot_dsa","broken_dsa","can_dsa_prbs","cannot_dsa_prbs","broken_dsa_prbs","can_rsasha1","cannot_rsasha1","broken_rsasha1","can_rsasha1_prbs","cannot_rsasha1_prbs","broken_rsasha1_prbs","can_dsansec3","cannot_dsansec3","broken_dsansec3","can_dsansec3_prbs","cannot_dsansec3_prbs","broken_dsansec3_prbs","can_rsansec3","cannot_rsansec3","broken_rsansec3","can_rsansec3_prbs","cannot_rsansec3_prbs","broken_rsansec3_prbs","can_rsasha256","cannot_rsasha256","broken_rsasha256","can_rsasha256_prbs","cannot_rsasha256_prbs","broken_rsasha256_prbs","can_rsasha512","cannot_rsasha512","broken_rsasha512","can_rsasha512_prbs","cannot_rsasha512_prbs","broken_rsasha512_prbs","can_eccgost","cannot_eccgost","broken_eccgost","can_eccgost_prbs","cannot_eccgost_prbs","broken_eccgost_prbs","can_ecdsa256","cannot_ecdsa256","broken_ecdsa256","can_ecdsa256_prbs","cannot_ecdsa256_prbs","broken_ecdsa256_prbs","can_ecdsa384","cannot_ecdsa384","broken_ecdsa384","can_ecdsa384_prbs","cannot_ecdsa384_prbs","broken_ecdsa384_prbs","can_ed25519","cannot_ed25519","broken_ed25519","can_ed25519_prbs","cannot_ed25519_prbs","broken_ed25519_prbs","can_ed448","cannot_ed448","broken_ed448","can_ed448_prbs","cannot_ed448_prbs","broken_ed448_prbs","can_gost","cannot_gost","broken_gost","can_gost_prbs","cannot_gost_prbs","broken_gost_prbs","can_sha384","cannot_sha384","broken_sha384","can_sha384_prbs","cannot_sha384_prbs","broken_sha384_prbs","is_internal","is_forwarding","is_external","is_internal_prbs","is_forwarding_prbs","is_external_prbs"
2017-06-20T23:59:59Z,65,101,44,34,99,65,38,30,12,13,0,0,0,0,0,0,0,101,0,65,0,101,0,65,0,0,0,0,0,0,0,0,3,96,2,4,63,7,9,92,0,7,60,1,11,90,0,13,59,1,9,92,0,7,60,1,9,92,0,12,60,1,9,92,0,12,60,1,9,92,0,12,60,1,0,101,0,1,65,1,7,94,0,10,61,1,7,94,0,10,61,1,0,101,0,0,65,1,0,101,0,0,65,1,0,101,0,6,65,1,8,93,0,11,60,1,49,24,28,40,20,28
2017-06-21T23:59:48Z,64,103,44,33,102,64,39,29,10,11,0,0,0,0,0,0,0,102,0,64,0,103,0,64,0,0,0,0,0,0,0,0,3,98,2,4,62,6,9,94,0,7,59,1,11,92,0,12,58,1,9,94,0,7,59,1,9,94,0,11,59,1,9,94,0,11,59,1,9,94,0,11,59,1,0,103,0,1,64,1,7,96,0,9,60,1,7,96,0,9,60,1,0,103,0,0,64,1,0,103,0,0,64,1,0,103,0,5,64,1,8,94,0,10,59,1,49,24,30,38,21,28
2017-06-22T23:59:46Z,65,105,46,34,102,65,40,30,16,16,0,0,0,0,0,0,0,104,0,65,0,105,0,65,0,0,0,0,0,0,0,0,2,103,0,3,65,6,8,97,0,6,61,1,8,97,0,11,61,1,8,97,0,6,61,1,10,95,0,12,60,1,10,95,0,12,60,1,10,95,0,12,60,1,0,105,0,1,65,1,7,98,0,10,61,1,7,98,0,10,61,1,0,105,0,0,65,1,0,105,0,0,65,1,0,105,0,6,65,1,10,94,0,12,58,1,50,25,30,38,22,29
2017-06-23T23:59:59Z,65,103,46,34,100,65,40,30,12,13,0,0,0,0,0,0,0,102,0,65,0,103,0,65,0,0,0,0,0,0,0,0,2,101,0,3,65,6,8,95,0,6,61,1,8,95,0,11,61,1,8,95,0,6,61,1,11,92,0,13,59,1,11,92,0,13,59,1,11,92,0,13,59,1,0,103,0,1,65,1,7,96,0,10,61,1,7,96,0,10,61,1,0,103,0,0,65,1,0,103,0,0,65,1,0,103,0,6,65,1,8,94,0,11,60,1,50,25,28,39,21,27
2017-06-24T23:59:59Z,63,102,45,33,99,63,41,31,13,14,0,0,0,0,0,0,0,101,0,63,0,102,0,63,0,0,0,0,0,0,0,0,2,98,2,3,62,7,8,94,0,6,59,1,10,92,0,12,58,1,8,94,0,6,59,1,8,94,0,11,59,1,8,94,0,11,59,1,8,94,0,11,59,1,0,102,0,1,63,1,7,95,0,10,59,1,8,94,0,10,58,1,0,102,0,0,63,1,0,102,0,0,63,1,0,102,0,6,63,1,7,94,0,10,59,1,53,20,29,40,18,28
2017-06-25T23:59:48Z,62,102,45,32,98,62,41,30,12,14,0,0,0,0,0,0,0,101,0,62,0,102,0,62,0,0,0,0,0,0,0,0,3,99,0,4,61,6,8,94,0,6,58,1,8,94,0,11,58,1,8,94,0,6,58,1,8,94,0,11,58,1,8,94,0,11,58,1,9,93,0,11,57,1,0,102,0,1,62,1,7,95,0,10,58,1,8,94,0,10,57,1,0,102,0,0,62,1,0,102,0,0,62,1,0,102,0,6,62,1,7,94,0,10,58,1,51,22,29,39,18,28
2017-06-26T23:59:48Z,64,104,47,34,103,64,41,30,13,14,0,0,0,0,0,0,0,103,0,64,0,104,0,64,0,0,0,0,0,0,0,0,2,100,2,3,63,7,8,96,0,6,60,1,10,94,0,12,59,1,8,96,0,6,60,1,9,95,0,12,59,1,9,95,0,12,59,1,9,95,0,12,59,1,0,104,0,1,64,1,7,97,0,10,60,1,7,97,0,10,60,1,0,104,0,0,64,1,0,104,0,0,64,1,0,104,0,6,64,1,8,95,0,10,59,1,52,23,29,40,19,28
2017-06-27T23:59:48Z,61,99,43,32,98,61,40,30,13,14,0,0,0,0,0,0,0,98,0,61,0,99,0,61,0,0,0,0,0,0,0,0,2,96,1,3,60,6,8,91,0,6,57,1,8,91,0,11,57,1,8,91,0,6,57,1,8,91,0,11,57,1,8,91,0,11,57,1,8,91,0,11,57,1,0,99,0,1,61,1,7,92,0,10,57,1,8,91,0,10,56,1,0,99,0,0,61,1,0,99,0,0,61,1,0,99,0,6,61,1,7,91,0,10,57,1,49,21,29,37,19,28
2017-06-28T23:59:47Z,63,102,46,34,101,63,42,31,14,14,0,0,0,0,0,0,0,101,0,63,0,102,0,63,0,0,0,0,0,0,0,0,2,100,0,3,63,5,8,94,0,6,59,0,8,94,0,11,59,0,8,94,0,6,59,0,8,94,0,11,59,0,8,94,0,11,59,0,8,94,0,11,59,0,0,102,0,1,63,0,7,95,0,10,59,0,7,95,0,10,59,0,0,102,0,0,63,0,0,102,0,0,63,0,0,102,0,6,63,0,7,94,0,10,59,0,48,25,29,37,21,28
2017-06-29T23:59:48Z,64,103,47,35,98,64,41,31,13,14,0,0,0,0,0,0,0,102,0,64,0,103,0,64,0,0,0,0,0,0,0,0,3,100,0,4,63,5,8,95,0,6,60,0,8,95,0,11,60,0,8,95,0,6,60,0,8,95,0,11,60,0,8,95,0,11,60,0,8,95,0,11,60,0,0,103,0,1,64,0,7,96,0,10,60,0,8,95,0,10,59,0,0,103,0,0,64,0,0,103,0,0,64,0,0,103,0,6,64,0,7,95,0,10,60,0,54,20,29,41,18,28
2017-06-30T23:59:59Z,63,102,46,34,100,63,39,29,10,12,0,0,0,0,0,0,0,101,0,63,0,102,0,63,0,0,0,0,0,0,0,0,3,99,0,4,62,5,9,93,0,7,58,0,9,93,0,12,58,0,9,93,0,7,58,0,9,93,0,12,58,0,10,92,0,13,57,0,10,92,0,13,57,0,0,102,0,1,63,0,8,94,0,10,58,0,7,95,0,10,59,0,0,102,0,0,63,0,0,102,0,0,63,0,0,102,0,6,63,0,8,93,0,11,58,0,51,22,29,39,19,28
2017-07-01T23:59:45Z,63,103,47,34,102,63,41,30,12,13,0,0,0,0,0,0,0,102,0,63,0,103,0,63,0,0,0,0,0,0,0,0,3,98,2,4,61,6,9,94,0,7,58,0,11,92,0,13,57,0,9,94,0,7,58,0,9,94,0,12,58,0,10,93,0,12,57,0,9,94,0,12,58,0,0,103,0,1,63,0,7,96,0,10,59,0,7,96,0,10,59,0,0,103,0,0,63,0,0,103,0,0,63,0,0,103,0,6,63,0,8,94,0,11,58,0,51,22,29,38,20,28
2017-07-02T23:59:47Z,62,100,45,33,99,62,41,30,12,13,0,0,0,0,0,0,0,99,0,62,0,100,0,62,0,0,0,0,0,0,0,0,3,97,0,4,61,5,9,91,0,7,57,0,10,90,0,13,56,0,9,91,0,7,57,0,9,91,0,12,57,0,9,91,0,12,57,0,9,91,0,12,57,0,0,100,0,1,62,0,7,93,0,10,58,0,7,93,0,10,58,0,0,100,0,0,62,0,0,100,0,0,62,0,0,100,0,6,62,0,8,91,0,11,57,0,50,22,28,38,19,27
2017-07-03T23:59:46Z,64,103,48,35,99,64,42,31,13,15,0,0,0,0,0,0,0,102,0,64,0,103,0,64,0,0,0,0,0,0,0,0,3,100,0,4,63,5,9,94,0,7,59,0,9,94,0,12,59,0,9,94,0,7,59,0,9,94,0,12,59,0,9,94,0,12,59,0,10,93,0,12,58,0,0,103,0,1,64,0,9,94,0,11,59,0,9,94,0,11,59,0,0,103,0,0,64,0,0,103,0,0,64,0,0,103,0,6,64,0,8,94,0,11,59,0,49,26,28,37,22,27
2017-07-04T23:59:48Z,64,103,48,35,102,64,42,31,12,13,0,0,0,0,0,0,0,102,0,64,0,103,0,64,0,0,0,0,0,0,0,0,4,99,0,5,62,5,9,94,0,7,59,0,9,94,0,12,59,0,9,94,0,7,59,0,9,94,0,12,59,0,9,94,0,12,59,0,9,94,0,12,59,0,0,103,0,1,64,0,7,96,0,10,60,0,7,96,0,10,60,0,0,103,0,0,64,0,0,103,0,0,64,0,0,103,0,6,64,0,8,94,0,11,59,0,51,24,28,38,21,27
2017-07-05T23:59:48Z,64,103,48,36,102,64,43,32,12,14,0,0,0,0,0,0,0,102,0,64,0,103,0,64,0,0,0,0,0,0,0,0,3,97,3,4,61,8,9,94,0,7,59,0,11,92,0,14,58,0,9,94,0,7,59,0,10,93,0,13,58,0,9,94,0,13,59,0,9,94,0,13,59,0,0,103,0,1,64,0,7,96,0,11,60,0,7,96,0,11,60,0,0,103,0,0,64,0,0,103,0,0,64,0,0,103,0,7,64,0,8,94,0,12,59,0,52,23,28,39,20,27
2017-07-06T23:59:59Z,61,97,46,34,96,61,43,32,13,14,0,0,0,0,0,0,0,96,0,61,0,97,0,61,0,0,0,0,0,0,0,0,3,94,0,4,60,5,9,88,0,7,56,0,9,88,0,12,56,0,9,88,0,7,56,0,10,87,0,12,55,0,9,88,0,12,56,0,9,88,0,12,56,0,0,97,0,1,61,0,8,89,0,10,56,0,8,89,0,10,56,0,0,97,0,0,61,0,0,97,0,0,61,0,0,97,0,6,61,0,9,87,0,12,55,0,51,21,25,39,18,24
2017-07-07T23:59:48Z,63,102,48,36,101,63,42,30,14,16,0,0,0,0,0,0,0,101,0,63,0,102,0,63,0,0,0,0,0,0,0,0,3,99,0,4,62,6,9,93,0,7,58,0,9,93,0,13,58,0,9,93,0,7,58,0,10,92,0,13,57,0,9,93,0,13,58,0,9,93,0,13,58,0,0,102,0,1,63,0,7,95,0,11,59,0,7,95,0,11,59,0,0,102,0,0,63,0,0,102,0,0,63,0,0,102,0,7,63,0,8,93,0,12,58,0,49,26,27,37,22,26
2017-07-08T23:59:47Z,64,103,49,36,101,64,42,30,13,14,0,0,0,0,0,0,0,102,0,64,0,103,0,64,0,0,0,0,0,0,0,0,3,98,2,4,62,6,9,94,0,7,59,0,11,92,0,13,58,0,9,94,0,7,59,0,9,94,0,12,59,0,9,94,0,12,59,0,10,93,0,12,58,0,0,103,0,1,64,0,7,96,0,10,60,0,7,96,0,10,60,0,0,103,0,0,64,0,0,103,0,0,64,0,0,103,0,6,64,0,9,93,0,11,58,0,52,23,27,39,21,26
2017-07-09T23:59:47Z,65,104,47,35,103,65,42,30,13,14,0,0,0,0,0,0,0,104,0,65,0,104,0,65,0,0,0,0,0,0,0,0,3,101,0,4,64,5,9,95,0,7,60,0,9,95,0,12,60,0,9,95,0,7,60,0,10,94,0,12,59,0,9,95,0,12,60,0,10,94,0,12,59,0,0,104,0,1,65,0,7,97,0,10,61,0,7,97,0,10,61,0,0,104,0,0,65,0,0,104,0,0,65,0,0,104,0,6,65,0,8,96,0,11,60,0,52,24,28,40,21,28
2017-07-10T23:59:59Z,67,108,48,36,107,67,42,31,11,13,0,0,0,0,0,0,0,108,0,67,0,108,0,67,0,0,0,0,0,0,0,0,3,103,2,4,65,6,9,99,0,7,62,0,11,97,0,13,61,0,9,99,0,7,62,0,9,99,0,12,62,0,9,99,0,12,62,0,10,98,0,12,61,0,0,108,0,1,67,0,7,101,0,10,63,0,7,101,0,10,63,0,0,108,0,0,67,0,0,108,0,0,67,0,0,108,0,6,67,0,8,100,0,11,62,0,54,24,30,43,20,29
2017-07-11T23:59:59Z,66,105,48,37,105,66,41,32,13,15,0,0,0,0,0,0,0,105,0,66,0,105,0,66,0,0,0,0,0,0,0,0,3,100,2,4,64,7,9,96,0,7,61,0,11,94,0,14,60,0,9,96,0,7,61,0,10,95,0,13,60,0,9,96,0,13,61,0,9,96,0,13,61,0,0,105,0,1,66,0,8,97,0,12,61,0,8,97,0,12,61,0,0,105,0,0,66,0,0,105,0,0,66,0,0,105,0,7,66,0,9,96,0,12,60,0,52,25,28,40,23,27
2017-07-12T23:59:59Z,63,100,48,35,99,63,44,32,13,14,0,0,0,0,0,0,0,100,0,63,0,100,0,63,0,0,0,0,0,0,0,0,3,95,2,4,61,6,9,91,0,7,58,0,11,89,0,13,57,0,9,91,0,7,58,0,9,91,0,12,58,0,9,91,0,12,58,0,9,91,0,12,58,0,0,100,0,1,63,0,7,93,0,10,59,0,7,93,0,10,59,0,0,100,0,0,63,0,0,100,0,0,63,0,0,100,0,6,63,0,9,91,0,12,57,0,50,23,27,39,19,25
2017-07-13T23:59:47Z,63,98,46,35,98,63,41,30,13,15,0,0,0,0,0,0,0,98,0,63,0,98,0,63,0,0,0,0,0,0,0,0,3,95,0,4,62,6,9,89,0,7,58,0,9,89,0,13,58,0,9,89,0,7,58,0,9,89,0,13,58,0,9,89,0,13,58,0,10,88,0,13,57,0,0,98,0,1,63,0,7,91,0,11,59,0,7,91,0,11,59,0,0,98,0,0,63,0,0,98,0,0,63,0,0,98,0,7,63,0,8,90,0,12,58,0,47,23,28,38,20,27
2017-07-14T23:59:59Z,63,99,46,35,98,63,42,31,14,15,0,0,0,0,0,0,0,99,0,63,0,99,0,63,0,0,0,0,0,0,0,0,3,96,0,4,62,6,9,90,0,7,58,0,9,90,0,13,58,0,9,90,0,7,58,0,9,90,0,13,58,0,9,90,0,13,58,0,9,90,0,13,58,0,0,99,0,1,63,0,7,92,0,11,59,0,7,92,0,11,59,0,0,99,0,0,63,0,0,99,0,0,63,0,0,99,0,7,63,0,8,91,0,12,58,0,48,22,29,38,20,28
2017-07-15T23:59:59Z,64,100,47,36,99,64,41,32,15,16,0,0,0,0,0,0,0,100,0,64,0,100,0,64,0,0,0,0,0,0,0,0,3,97,0,4,63,6,9,91,0,7,59,0,9,91,0,13,59,0,9,91,0,7,59,0,9,91,0,13,59,0,9,91,0,13,59,0,9,91,0,13,59,0,0,100,0,1,64,0,7,93,0,11,60,0,8,92,0,11,59,0,0,100,0,0,64,0,0,100,0,0,64,0,0,100,0,7,64,0,8,92,0,12,59,0,47,24,29,39,20,28
2017-07-16T23:59:59Z,64,100,48,36,97,64,43,32,13,14,0,0,0,0,0,0,0,100,0,64,0,100,0,64,0,0,0,0,0,0,0,0,3,94,3,4,61,7,9,91,0,7,59,0,11,89,0,14,58,0,9,91,0,7,59,0,9,91,0,13,59,0,9,91,0,13,59,0,9,91,0,13,59,0,0,100,0,1,64,0,7,93,0,11,60,0,7,93,0,11,60,0,0,100,0,0,64,0,0,100,0,0,64,0,0,100,0,7,64,0,9,91,0,12,58,0,48,24,28,39,20,27
2017-07-17T23:59:48Z,64,100,46,35,100,64,42,31,10,13,0,0,0,0,0,0,0,100,0,64,0,100,0,64,0,0,0,0,0,0,0,0,3,95,2,4,62,7,9,91,0,7,59,0,11,89,0,14,58,0,9,91,0,7,59,0,11,89,0,14,58,0,12,88,0,14,57,0,12,88,0,14,57,0,0,100,0,1,64,0,7,93,0,11,60,0,7,93,0,11,60,0,0,100,0,0,64,0,0,100,0,0,64,0,0,100,0,7,64,0,8,92,0,12,59,0,49,24,27,40,20,27
2017-07-18T23:59:47Z,63,101,47,35,100,63,42,31,11,14,0,0,0,0,0,0,0,101,0,63,0,101,0,63,0,0,0,0,0,0,0,0,3,95,3,4,60,8,9,92,0,7,58,0,12,89,0,15,56,0,9,92,0,7,58,0,11,90,0,14,57,0,11,90,0,14,57,0,11,90,0,14,57,0,0,101,0,1,63,0,8,93,0,12,58,0,8,93,0,12,58,0,0,101,0,0,63,0,0,101,0,0,63,0,0,101,0,7,63,0,8,93,0,12,58,0,52,22,27,40,19,27
2017-07-19T23:59:48Z,65,103,46,35,103,65,39,30,12,14,0,0,0,0,0,0,0,103,0,65,0,103,0,65,0,0,0,0,0,0,0,0,3,98,2,4,63,6,9,94,0,7,60,0,11,92,0,13,59,0,9,94,0,7,60,0,9,94,0,12,60,0,9,94,0,12,60,0,9,94,0,12,60,0,0,103,0,1,65,0,7,96,0,10,61,0,7,96,0,10,61,0,0,103,0,0,65,0,0,103,0,0,65,0,0,103,0,6,65,0,8,95,0,11,60,0,53,23,27,42,19,27
2017-07-20T23:59:59Z,65,103,46,35,102,65,39,30,13,14,0,0,0,0,0,0,0,103,0,65,2,101,1,64,0,0,0,0,0,0,0,0,3,100,0,3,64,5,9,94,0,7,60,0,9,94,0,12,60,0,9,94,0,7,60,0,9,94,0,12,60,0,10,93,0,12,59,0,9,94,0,12,60,0,0,103,0,1,65,0,7,96,0,10,61,0,7,96,0,10,61,0,0,103,0,0,65,0,0,103,0,0,65,0,0,103,0,6,65,0,8,93,2,11,59,1,53,23,27,41,20,27
2017-07-21T23:59:47Z,64,101,44,34,101,64,40,30,10,12,0,0,0,0,0,0,0,101,0,64,0,101,0,64,0,0,0,0,0,0,0,0,3,98,0,3,63,5,9,92,0,7,59,0,9,92,0,12,59,0,9,92,0,7,59,0,9,92,0,12,59,0,10,91,0,12,58,0,9,92,0,12,59,0,0,101,0,1,64,0,7,94,0,10,60,0,8,93,0,10,59,0,0,101,0,0,64,0,0,101,0,0,64,0,0,101,0,6,64,0,8,93,0,11,59,0,51,23,27,39,21,27
2017-07-22T23:59:59Z,63,100,43,33,98,63,39,29,10,12,0,0,0,0,0,0,0,100,0,63,0,100,0,63,0,0,0,0,0,0,0,0,3,97,0,3,62,4,9,91,0,7,58,0,9,91,0,11,58,0,9,91,0,7,58,0,9,91,0,11,58,0,9,91,0,11,58,0,9,91,0,11,58,0,0,100,0,1,63,0,7,93,0,9,59,0,7,93,0,9,59,0,0,100,0,0,63,0,0,100,0,0,63,0,0,100,0,5,63,0,8,92,0,10,58,0,53,20,27,42,17,26
2017-07-23T23:59:59Z,62,101,44,34,101,62,41,31,11,13,0,0,0,0,0,0,0,101,0,62,0,101,0,62,0,0,0,0,0,0,0,0,5,96,0,4,61,5,11,90,0,8,57,0,11,90,0,13,57,0,11,90,0,8,57,0,11,90,0,13,57,0,11,90,0,13,57,0,11,90,0,13,57,0,0,101,0,1,62,0,9,92,0,11,58,0,9,92,0,11,58,0,0,101,0,0,62,0,0,101,0,0,62,0,0,101,0,6,62,0,11,90,0,13,56,0,54,20,27,40,18,25
2017-07-24T23:59:46Z,65,101,47,37,101,65,42,33,14,16,0,0,0,0,0,0,0,101,0,65,0,101,0,65,0,0,0,0,0,0,0,0,5,94,2,4,61,8,11,90,0,8,59,0,13,88,0,16,57,0,11,90,0,8,59,0,13,88,0,16,57,0,14,87,0,16,56,0,13,88,0,16,57,0,0,101,0,1,65,0,11,90,0,14,58,0,11,90,0,14,58,0,0,101,0,0,65,0,0,101,0,0,65,0,0,101,0,7,65,0,12,89,0,15,57,0,53,22,26,41,19,26
2017-07-25T23:59:59Z,63,101,45,35,101,63,41,31,12,14,0,0,0,0,0,0,0,101,0,63,0,101,0,63,0,0,0,0,0,0,0,0,5,94,2,4,59,7,11,90,0,8,57,0,11,90,0,14,57,0,11,90,0,8,57,0,11,90,0,14,57,0,12,89,0,14,56,0,12,89,0,14,56,0,0,101,0,1,63,0,9,92,0,12,58,0,9,92,0,12,58,0,0,101,0,0,63,0,0,101,0,0,63,0,0,101,0,7,63,0,10,91,0,13,57,0,53,21,27,41,18,26
2017-07-26T23:59:59Z,60,95,42,32,93,60,38,28,9,11,0,0,0,0,0,0,0,95,0,60,0,95,0,60,0,0,0,0,0,0,0,0,5,90,0,4,58,4,10,85,0,7,55,0,10,85,0,11,55,0,10,85,0,7,55,0,10,85,0,11,55,0,10,85,0,11,55,0,10,85,0,11,55,0,0,95,0,1,60,0,8,87,0,9,56,0,8,87,0,9,56,0,0,95,0,0,60,0,0,95,0,0,60,0,0,95,0,5,60,0,9,86,0,10,55,0,51,20,24,38,18,23
2017-07-27T23:59:59Z,60,96,42,32,96,60,38,28,10,12,0,0,0,0,0,0,0,96,0,60,0,96,0,60,0,0,0,0,0,0,0,0,5,91,0,4,58,5,10,86,0,7,55,0,10,86,0,12,55,0,10,86,0,7,55,0,10,86,0,12,55,0,11,85,0,12,54,0,10,86,0,12,55,0,0,96,0,1,60,0,8,88,0,10,56,0,8,88,0,10,56,0,0,96,0,0,60,0,0,96,0,0,60,0,0,96,0,6,60,0,9,87,0,11,55,0,50,21,25,38,18,25
2017-07-28T23:59:59Z,61,97,42,32,97,61,37,28,9,11,0,0,0,0,0,0,0,97,0,61,0,97,0,61,0,0,0,0,0,0,0,0,5,92,0,4,59,5,10,87,0,7,56,0,10,87,0,12,56,0,10,87,0,7,56,0,10,87,0,12,56,0,11,86,0,12,55,0,10,87,0,12,56,0,0,97,0,1,61,0,8,89,0,10,57,0,9,88,0,10,56,0,0,97,0,0,61,0,0,97,0,0,61,0,0,97,0,6,61,0,9,88,0,11,56,0,50,22,25,38,19,25
2017-07-29T23:59:59Z,60,97,41,31,96,60,37,28,9,11,0,0,0,0,0,0,0,97,0,60,0,97,0,60,0,0,0,0,0,0,0,0,5,92,0,4,58,5,10,87,0,7,55,0,10,87,0,12,55,0,10,87,0,7,55,0,10,87,0,12,55,0,10,87,0,12,55,0,11,86,0,12,54,0,0,97,0,1,60,0,9,88,0,10,55,0,8,89,0,10,56,0,0,97,0,0,60,0,0,97,0,0,60,0,0,97,0,6,60,0,9,88,0,11,55,0,53,18,26,40,16,26
2017-07-30T23:59:59Z,61,97,42,32,97,61,38,29,9,11,0,0,0,0,0,0,0,97,0,61,0,97,0,61,0,0,0,0,0,0,0,0,6,91,0,5,58,5,10,87,0,7,56,0,10,87,0,12,56,0,10,87,0,7,56,0,10,87,0,12,56,0,10,87,0,12,56,0,10,87,0,12,56,0,0,97,0,1,61,0,8,89,0,10,57,0,8,89,0,10,57,0,0,97,0,0,61,0,0,97,0,0,61,0,0,97,0,6,61,0,11,86,0,12,54,0,49,23,25,37,20,25
2017-07-31T23:59:59Z,62,98,42,32,98,62,37,28,10,12,0,0,0,0,0,0,0,98,0,62,0,98,0,62,0,0,0,0,0,0,0,0,5,93,0,4,60,5,10,88,0,7,57,0,10,88,0,12,57,0,10,88,0,7,57,0,10,88,0,12,57,0,11,87,0,12,56,0,10,88,0,12,57,0,0,98,0,1,62,0,8,90,0,10,58,0,9,89,0,10,57,0,0,98,0,0,62,0,0,98,0,0,62,0,0,98,0,6,62,0,10,88,0,12,56,0,50,23,25,38,20,25
2017-08-01T23:59:59Z,61,98,41,31,98,61,38,28,8,10,0,0,0,0,0,0,0,98,0,61,0,98,0,61,0,0,0,0,0,0,0,0,4,94,0,3,60,4,9,89,0,6,57,0,9,89,0,10,57,0,9,89,0,6,57,0,9,89,0,10,57,0,9,89,0,10,57,0,9,89,0,10,57,0,0,98,0,1,61,0,8,90,0,9,57,0,8,90,0,9,57,0,0,98,0,0,61,0,0,98,0,0,61,0,0,98,0,5,61,0,8,90,0,9,57,0,52,20,26,40,17,25
2017-08-02T23:59:47Z,62,98,41,32,98,62,37,29,10,12,0,0,0,0,0,0,0,98,0,62,3,94,2,60,0,0,0,0,0,0,0,0,3,95,0,2,61,6,7,91,0,6,58,1,7,91,0,11,58,2,7,91,0,6,58,0,8,90,0,11,57,1,8,90,0,11,57,1,7,91,0,11,58,1,0,98,0,1,62,2,7,91,0,10,57,2,6,92,0,10,58,1,0,98,0,0,62,1,0,98,0,0,62,1,0,98,0,6,62,1,7,88,3,11,55,2,53,19,26,41,17,25
2017-08-03T23:59:46Z,61,96,40,31,96,61,37,28,8,10,0,0,0,0,0,0,0,96,0,61,0,96,2,61,0,0,0,0,0,0,0,0,3,93,0,2,60,5,7,89,0,6,57,1,7,89,0,10,57,2,7,89,0,6,57,0,7,89,0,10,57,1,7,89,0,10,57,1,7,89,0,10,57,1,0,96,0,1,61,2,6,90,0,9,57,2,6,90,0,9,57,1,0,96,0,0,61,1,0,96,0,0,61,1,0,96,0,5,61,1,7,89,0,10,56,1,54,17,25,41,16,24
2017-08-04T23:59:59Z,63,101,44,34,101,63,39,30,11,13,0,0,0,0,0,0,0,101,0,63,0,101,0,63,0,0,0,0,0,0,0,0,3,96,2,2,61,7,7,94,0,6,59,0,9,92,0,13,58,0,7,94,0,6,59,0,9,92,0,13,58,0,9,92,0,13,58,0,9,92,0,13,58,0,0,101,0,1,63,0,8,93,0,12,58,0,8,93,0,12,58,0,0,101,0,0,63,0,0,101,0,0,63,0,0,101,0,7,63,0,8,93,0,12,58,0,55,19,27,42,17,26
2017-08-05T23:59:59Z,60,93,40,32,93,60,36,28,10,12,0,0,0,0,0,0,0,93,0,60,0,93,0,60,0,0,0,0,0,0,0,0,3,90,0,2,59,5,7,86,0,6,56,0,7,86,0,11,56,0,7,86,0,6,56,0,7,86,0,11,56,0,7,86,0,11,56,0,7,86,0,11,56,0,0,93,0,1,60,0,6,87,0,10,56,0,6,87,0,10,56,0,0,93,0,0,60,0,0,93,0,0,60,0,0,93,0,6,60,0,6,87,0,10,56,0,46,22,25,35,20,24
2017-08-06T23:59:59Z,61,96,42,33,95,61,38,29,12,13,0,0,0,0,0,0,0,96,0,61,0,96,0,61,0,0,0,0,0,0,0,0,3,91,2,2,59,6,7,89,0,6,57,0,9,87,0,12,56,0,7,89,0,6,57,0,9,87,0,12,56,0,9,87,0,12,56,0,9,87,0,12,56,0,0,96,0,1,61,0,6,90,0,10,57,0,6,90,0,10,57,0,0,96,0,0,61,0,0,96,0,0,61,0,0,96,0,6,61,0,8,88,0,11,56,0,47,24,25,36,21,23
2017-08-07T23:59:46Z,62,97,42,33,96,62,37,29,10,12,0,0,0,0,0,0,0,97,0,62,0,97,0,62,0,0,0,0,0,0,0,0,3,93,1,2,60,6,7,90,0,6,58,0,9,88,0,12,56,0,9,88,0,7,57,0,8,87,2,12,56,1,9,86,2,12,55,1,8,87,2,12,56,1,0,95,2,1,61,1,7,88,2,11,56,1,7,88,2,11,56,1,0,95,2,0,61,1,0,95,2,0,61,1,0,97,0,7,62,0,8,89,0,11,56,0,50,22,25,38,20,25
2017-08-08T23:59:59Z,61,95,41,32,94,61,37,29,10,12,0,0,0,0,0,0,0,95,0,61,0,95,0,61,0,0,0,0,0,0,0,0,3,91,1,2,59,5,7,88,0,6,57,0,7,88,0,11,57,0,7,88,0,6,57,0,7,88,0,11,57,0,7,88,0,11,57,0,8,87,0,11,56,0,0,95,0,1,61,0,6,89,0,10,57,0,6,89,0,10,57,0,0,95,0,0,61,0,0,95,0,0,61,0,0,95,0,6,61,0,6,89,0,10,57,0,50,21,24,38,19,24
2017-08-09T23:59:59Z,61,95,42,33,95,61,36,27,11,13,0,0,0,0,0,0,0,95,0,61,0,95,0,61,0,0,0,0,0,0,0,0,3,92,0,2,60,5,7,88,0,6,57,0,7,88,0,11,57,0,7,88,0,6,57,0,8,87,0,12,56,0,8,87,0,12,56,0,8,87,0,12,56,0,0,95,0,1,61,0,6,89,0,10,57,0,6,89,0,10,57,0,0,95,0,0,61,0,0,95,0,0,61,0,0,95,0,6,61,0,6,87,2,10,56,1,49,22,24,37,20,24
2017-08-10T23:59:45Z,62,97,44,34,97,62,36,27,13,14,0,0,0,0,0,0,0,97,0,62,0,97,0,62,0,0,0,0,0,0,0,0,4,91,2,3,59,6,7,90,0,6,58,0,10,87,0,13,56,0,9,88,0,7,57,0,9,86,2,12,56,1,10,85,2,12,55,1,9,86,2,12,56,1,0,95,2,1,61,1,8,87,2,11,55,1,8,89,0,11,56,0,0,97,0,0,62,0,0,97,0,0,62,0,0,97,0,6,62,0,9,88,0,11,56,0,52,21,24,39,19,24
2017-08-11T23:59:47Z,61,95,42,33,95,61,36,27,9,12,0,0,0,0,0,0,0,95,0,61,0,95,0,61,0,0,0,0,0,0,0,0,3,91,1,2,59,6,7,88,0,6,57,0,8,87,0,12,56,0,7,88,0,6,57,0,7,88,0,11,57,0,8,87,0,11,56,0,7,88,0,11,57,0,0,95,0,1,61,0,6,89,0,10,57,0,6,89,0,10,57,0,0,95,0,0,61,0,0,95,0,0,61,0,0,95,0,6,61,0,6,89,0,10,57,0,54,17,24,41,16,24
2017-08-12T23:59:59Z,61,96,42,33,95,61,37,28,11,13,0,0,0,0,0,0,0,96,1,61,0,96,0,61,0,0,0,0,0,0,0,0,4,91,1,3,58,6,7,89,0,6,57,0,7,89,0,11,57,0,7,89,0,6,57,0,7,89,0,11,57,0,7,89,0,11,57,0,7,89,0,11,57,0,0,96,0,1,61,0,6,90,0,10,57,0,6,90,0,10,57,0,0,96,0,0,61,0,0,96,0,0,61,0,0,96,0,6,61,0,7,89,0,10,56,0,52,19,25,40,17,25
2017-08-13T23:59:59Z,61,95,42,33,95,61,38,29,12,13,0,0,0,0,0,0,0,95,1,61,0,95,0,61,0,0,0,0,0,0,0,0,4,90,1,3,59,6,7,88,0,6,57,0,9,86,0,12,56,0,7,88,0,6,57,0,9,86,0,12,56,0,9,86,0,12,56,0,9,86,0,12,56,0,0,95,0,1,61,0,8,87,0,11,56,0,9,86,0,11,55,0,0,95,0,0,61,0,0,95,0,0,61,0,0,95,0,6,61,0,9,86,0,12,55,0,48,23,24,37,20,24
2017-08-14T23:59:59Z,62,96,42,34,96,62,38,30,9,12,0,0,0,0,0,0,0,96,0,62,0,96,1,62,0,0,0,0,0,0,0,0,4,92,0,3,60,6,8,88,0,7,57,1,9,87,0,13,56,1,8,88,0,7,57,1,9,87,0,12,56,1,9,87,0,13,56,1,9,87,0,12,56,1,0,96,0,1,62,1,8,88,0,11,56,1,7,89,0,11,57,1,0,96,0,0,62,1,0,96,0,0,62,1,0,96,0,6,62,1,7,89,0,11,57,1,51,20,25,40,18,25
2017-08-15T23:59:59Z,60,94,42,33,93,60,38,28,8,10,0,0,0,0,0,0,0,94,0,60,0,94,0,60,0,0,0,0,0,0,0,0,3,91,0,2,59,4,8,86,0,7,55,0,8,86,0,11,55,0,8,86,0,7,55,0,9,85,0,12,54,0,9,85,0,12,54,0,9,85,0,12,54,0,0,94,0,1,60,0,7,87,0,10,55,0,7,87,0,10,55,0,0,94,0,0,60,0,0,94,0,0,60,0,0,94,0,5,60,0,7,87,0,10,55,0,50,20,24,38,18,23
2017-08-16T23:59:59Z,61,93,43,34,93,61,37,28,10,12,0,0,0,0,0,0,0,93,1,61,0,93,0,61,0,0,0,0,0,0,0,0,3,88,2,2,58,6,8,85,0,7,56,0,9,84,0,13,55,0,8,85,0,7,56,0,8,85,0,12,56,0,8,85,0,12,56,0,8,85,0,12,56,0,0,93,0,1,61,0,7,86,0,11,56,0,7,86,0,11,56,0,0,93,0,0,61,0,0,93,0,0,61,0,0,93,0,6,61,0,7,86,0,11,56,0,51,20,22,39,18,22
2017-08-17T23:59:46Z,60,93,42,33,91,60,36,28,10,12,0,0,0,0,0,0,0,93,1,60,0,93,0,60,0,0,0,0,0,0,0,0,3,90,0,2,59,5,8,85,0,7,55,0,8,85,0,12,55,0,8,85,0,7,55,0,8,85,0,12,55,0,8,85,0,12,55,0,8,85,0,12,55,0,0,93,0,1,60,0,7,86,0,11,55,0,7,86,0,11,55,0,0,93,0,0,60,0,0,93,0,0,60,0,0,93,0,6,60,0,7,86,0,11,55,0,51,19,23,39,17,24
2017-08-18T23:59:47Z,61,94,42,34,94,61,35,28,10,12,0,0,0,0,0,0,0,94,0,61,0,94,0,61,0,0,0,0,0,0,0,0,3,91,0,2,60,5,8,86,0,7,56,0,8,86,0,12,56,0,8,86,0,7,56,0,8,86,0,12,56,0,9,85,0,12,55,0,9,85,0,12,55,0,0,94,0,1,61,0,7,87,0,11,56,0,8,86,0,11,55,0,0,94,0,0,61,0,0,94,0,0,61,0,0,94,0,6,61,0,7,87,0,11,56,0,47,23,24,36,21,24
2017-08-19T23:59:48Z,60,93,42,34,93,60,35,28,10,12,0,0,0,0,0,0,0,93,1,60,0,93,0,60,0,0,0,0,0,0,0,0,3,89,1,2,58,5,8,85,0,7,55,0,8,85,0,12,55,0,8,85,0,7,55,0,8,85,0,12,55,0,9,84,0,13,54,0,8,85,0,12,55,0,0,93,0,1,60,0,8,85,0,12,54,0,7,86,0,11,55,0,0,93,0,0,60,0,0,93,0,0,60,0,0,93,0,6,60,0,7,86,0,11,55,0,50,19,24,38,18,24
2017-08-20T23:59:59Z,60,92,42,34,92,60,37,29,11,13,0,0,0,0,0,0,0,92,0,60,0,92,0,60,0,0,0,0,0,0,0,0,3,89,0,2,59,5,8,84,0,7,55,0,8,84,0,12,55,0,8,84,0,7,55,0,9,83,0,12,54,0,9,83,0,12,54,0,8,84,0,12,55,0,0,92,0,1,60,0,7,85,0,11,55,0,7,85,0,11,55,0,0,92,0,0,60,0,0,92,0,0,60,0,0,92,0,6,60,0,8,84,0,12,54,0,48,21,23,37,19,23
2017-08-21T23:59:47Z,62,95,45,37,95,62,40,32,14,16,0,0,0,0,0,0,0,95,0,62,0,95,0,62,0,0,0,0,0,0,0,0,3,92,0,2,61,7,8,87,0,7,57,0,8,87,0,14,57,0,8,87,0,7,57,0,8,87,0,14,57,0,8,87,0,14,57,0,8,87,0,14,57,0,0,95,0,1,62,0,8,87,0,13,56,0,7,88,0,13,57,0,0,95,0,0,62,0,0,95,0,0,62,0,0,95,0,8,62,0,7,88,0,13,57,0,50,21,24,38,20,23
2017-08-22T23:59:59Z,62,94,46,37,93,62,39,31,13,15,0,0,0,0,0,0,0,94,0,62,0,94,0,62,0,0,0,0,0,0,0,0,3,90,1,2,60,7,8,86,0,7,57,0,8,86,0,14,57,0,8,86,0,7,57,0,10,84,0,16,55,0,10,84,0,16,55,0,10,84,0,15,55,0,0,94,0,1,62,0,7,87,0,13,57,0,8,86,0,14,56,0,0,94,0,0,62,0,0,94,0,0,62,0,0,94,0,8,62,0,7,87,0,13,57,0,49,21,24,38,19,24
2017-08-23T23:59:45Z,62,93,46,37,93,62,40,31,15,17,0,0,0,0,0,0,0,93,0,62,0,93,0,62,0,0,0,0,0,0,0,0,4,88,1,3,59,8,8,85,0,7,57,0,8,85,0,14,57,0,8,85,0,7,57,0,8,85,0,14,57,0,9,84,0,14,56,0,9,84,0,14,56,0,0,93,0,1,62,0,7,86,0,13,57,0,7,86,0,13,57,0,0,93,0,0,62,0,0,93,0,0,62,0,0,93,0,8,62,0,7,86,0,13,57,0,46,23,24,36,21,24
2017-08-24T23:59:59Z,62,93,45,37,93,62,39,31,13,15,0,0,0,0,0,0,0,93,1,62,0,93,0,62,0,0,0,0,0,0,0,0,3,90,0,2,61,7,8,85,0,7,57,0,8,85,0,14,57,0,8,85,0,7,57,0,9,84,0,15,56,0,9,84,0,15,56,0,10,83,0,15,55,0,0,93,0,1,62,0,8,85,0,14,56,0,8,85,0,14,56,0,0,93,0,0,62,0,0,93,0,0,62,0,0,93,0,8,62,0,8,85,0,13,56,0,44,24,25,35,22,24
2017-08-25T23:59:59Z,62,93,44,36,92,62,38,30,13,15,0,0,0,0,0,0,0,93,1,62,0,93,0,62,0,0,0,0,0,0,0,0,3,89,1,2,60,6,8,85,0,7,57,0,9,84,0,13,56,0,8,85,0,7,57,0,9,84,0,13,56,0,9,84,0,13,56,0,9,84,0,13,56,0,0,93,0,1,62,0,8,85,0,12,56,0,8,85,0,12,56,0,0,93,0,0,62,0,0,93,0,0,62,0,0,93,0,7,62,0,8,85,0,12,56,0,47,22,24,38,20,23